Regional Weather Roundup
Issued by NWS

Home | Current Version | Previous Version | Graphics & Text | Print | Product List | Glossary On
Versions: 1 2 3 4 5 6 7 8 9 10 11 12 13 14 15 16 17 18 19 20 21 22 23 24 25 26 27 28 29 30 31 32 33 34 35 36 37 38 39 40 41 42 43 44 45 46 47 48 49 50
000
ASUS43 KLMK 231310
RWRKY
KENTUCKY REGIONAL WEATHER ROUNDUP
NATIONAL WEATHER SERVICE LOUISVILLE KY
900 AM EDT SAT SEP 23 2017

NOTE "FAIR" INDICATES FEW OR NO CLOUDS BELOW 12,000 FEET
WITH NO SIGNIFICANT WEATHER AND/OR OBSTRUCTIONS TO VISIBILITY.

KYZ001>023-026-027-061>063-070>075-231400-
WESTERN AND SOUTH CENTRAL KENTUCKY

CITY           SKY/WX    TMP DP  RH WIND       PRES   REMARKS
PADUCAH        SUNNY     70  66  87 CALM      30.05R
HENDERSON      SUNNY     71  69  93 CALM      30.08R FOG
OWENSBORO      SUNNY     72  67  84 E5        30.08R
HOPKINSVILLE   SUNNY     71  68  90 E3        30.06R
BOWLING GREEN  SUNNY     71  68  90 NE3       30.07S
GLASGOW        SUNNY    N/A N/A N/A NE5       30.09R
$$

KYZ024-025-028>034-038-045-046-053-231400-
NORTH CENTRAL KENTUCKY

CITY           SKY/WX    TMP DP  RH WIND       PRES   REMARKS
LOUISVILLE/SDF MOSUNNY   74  67  78 CALM      30.10R
LOUISVILLE/LOU SUNNY     71  68  90 CALM      30.11R
FORT KNOX      SUNNY     69  67  92 NE6       30.09S
$$

KYZ035>037-039>044-047>052-055>060-089>105-231400-
NORTHEAST KENTUCKY

CITY           SKY/WX    TMP DP  RH WIND       PRES   REMARKS
LEXINGTON      SUNNY     69  65  86 NE9       30.13R FOG
COVINGTON      SUNNY     74  69  85 E5        30.13R HAZE
FRANKFORT      SUNNY     69  63  81 CALM      30.12R
$$

KYZ054-064>069-076>088-106>120-231400-
SOUTHEAST KENTUCKY

CITY           SKY/WX    TMP DP  RH WIND       PRES   REMARKS
JACKSON        SUNNY     69  65  86 CALM      30.13R
LONDON         SUNNY     67  63  87 CALM      30.12R
SOMERSET       SUNNY     64  64 100 CALM      30.13R
MIDDLESBORO    FOG       63  63 100 CALM      30.13R VSB 3/4
MONTICELLO     SUNNY     65  64  97 N13       30.12R FOG
$$




USA.gov is the U.S. government's official web portal to all federal, state and local government web resources and services.